Location: Vale
(35.4830°N, 81.3830°W)
Time: 15:22:41
(UTC-04:00)

SR - All Passes

Search period start: 24 May 2018 00:00
Search period end: 03 June 2018 00:00
Orbit: 576 x 880 km, 66.7° (Epoch: 23 May)

Date Brightness Start Highest point End Pass type
(mag) Time Alt. Az. Time Alt. Az. Time Alt. Az.
24 May - 05:43:12 10° SW 05:47:42 67° WNW 05:52:39 10° NNE visible
24 May - 14:26:16 10° NNW 14:31:54 47° ENE 14:37:35 10° SE daylight
24 May - 16:09:06 10° NW 16:13:42 24° WSW 16:18:19 10° SSW daylight
25 May - 04:53:51 10° S 04:58:14 53° ESE 05:03:02 10° NE visible
25 May - 06:37:39 10° W 06:40:44 17° NW 06:43:58 10° N daylight
25 May - 13:37:18 10° N 13:42:05 26° NE 13:46:56 10° ESE daylight
25 May - 15:18:48 10° NW 15:24:25 48° WSW 15:30:03 10° S daylight
26 May - 04:05:27 10° SSE 04:09:00 23° ESE 04:12:46 10° NE visible
26 May - 05:46:37 10° WSW 05:50:47 33° NW 05:55:19 10° N visible
26 May - 12:48:59 10° NNE 12:52:03 14° NE 12:55:10 10° E daylight
26 May - 14:29:04 10° NNW 14:34:56 86° ENE 14:40:52 10° SSE daylight
26 May - 16:14:12 10° W 16:16:18 12° WSW 16:18:24 10° WSW daylight
27 May - 04:56:33 10° SSW 05:01:05 72° WNW 05:06:06 10° NNE visible
27 May - 13:39:43 10° NNW 13:45:18 45° ENE 13:50:57 10° SE daylight
27 May - 15:22:26 10° NW 15:27:09 26° WSW 15:31:53 10° SSW daylight
28 May - 04:07:16 10° S 04:11:38 49° ESE 04:16:26 10° NE visible
28 May - 05:50:50 10° W 05:54:04 18° NW 05:57:31 10° N daylight
28 May - 12:50:46 10° N 12:55:28 25° NE 13:00:14 10° ESE daylight
28 May - 14:32:11 10° NW 14:37:50 51° WSW 14:43:31 10° S daylight
29 May - 03:18:58 10° SSE 03:22:25 21° ESE 03:26:05 10° ENE visible
29 May - 04:59:54 10° WSW 05:04:09 35° NW 05:08:47 10° N visible
29 May - 12:02:32 10° NNE 12:05:25 14° NE 12:08:20 10° ENE daylight
29 May - 13:42:28 10° NNW 13:48:21 82° ENE 13:54:17 10° SSE daylight
29 May - 15:27:16 10° WNW 15:29:45 13° WSW 15:32:15 10° SW daylight
30 May - 04:09:54 10° SSW 04:14:29 77° WNW 04:19:32 10° NNE visible
30 May - 12:53:09 10° NNW 12:58:42 43° ENE 13:04:18 10° SE daylight
30 May - 14:35:45 10° NW 14:40:36 27° WSW 14:45:26 10° SSW daylight
31 May - 03:20:42 10° S 03:25:03 46° ESE 03:29:49 10° NE visible
31 May - 05:04:02 10° W 05:07:26 19° NW 05:11:03 10° N visible
31 May - 12:04:14 10° N 12:08:51 24° NE 12:13:31 10° ESE daylight
31 May - 13:45:33 10° NW 13:51:16 54° WSW 13:57:00 10° S daylight
01 Jun - 02:32:29 10° SSE 02:35:50 20° ESE 02:39:24 10° ENE visible
01 Jun - 04:13:12 10° SW 04:17:31 37° WNW 04:22:15 10° NNE visible
01 Jun - 11:16:06 10° NNE 11:18:47 13° NE 11:21:29 10° ENE daylight
01 Jun - 12:55:53 10° NNW 13:01:47 78° ENE 13:07:42 10° SSE daylight
01 Jun - 14:40:24 10° WNW 14:43:12 14° WSW 14:46:01 10° SW daylight
02 Jun - 03:23:16 10° SSW 03:27:52 82° WNW 03:32:57 10° NNE visible
02 Jun - 05:09:49 10° NW 05:10:54 11° NW 05:12:00 10° NNW visible
02 Jun - 12:06:35 10° NNW 12:12:06 41° ENE 12:17:39 10° SE daylight
02 Jun - 13:49:04 10° NW 13:54:02 29° WSW 13:58:59 10° SSW daylight
